Year,Month,Day,Hour,Minute,Value (Times are PST for temperature in C)
2005,07,20,00,00,12.90
2005,07,20,00,01,12.90
2005,07,20,00,02,12.90
2005,07,20,00,03,12.80
2005,07,20,00,04,12.80
2005,07,20,00,05,12.80
2005,07,20,00,06,12.80
2005,07,20,00,07,12.70
2005,07,20,00,08,12.70
2005,07,20,00,09,12.70
2005,07,20,00,10,12.60
2005,07,20,00,11,12.60
2005,07,20,00,12,12.60
2005,07,20,00,13,12.60
2005,07,20,00,14,12.60
2005,07,20,00,15,12.50
2005,07,20,00,16,12.50
2005,07,20,00,17,12.50
2005,07,20,00,18,12.40
2005,07,20,00,19,12.40
2005,07,20,00,20,12.40
2005,07,20,00,21,12.30
2005,07,20,00,22,12.30
2005,07,20,00,23,12.30
2005,07,20,00,24,12.30
2005,07,20,00,25,12.30
2005,07,20,00,26,12.30
2005,07,20,00,27,12.30
2005,07,20,00,28,12.30
2005,07,20,00,29,12.30
2005,07,20,00,30,12.20
2005,07,20,00,31,12.20
2005,07,20,00,32,12.20
2005,07,20,00,33,12.10
2005,07,20,00,34,12.10
2005,07,20,00,35,12.10
2005,07,20,00,36,12.10
2005,07,20,00,37,12.10
2005,07,20,00,38,12.00
2005,07,20,00,39,12.00
2005,07,20,00,40,12.00
2005,07,20,00,41,12.00
2005,07,20,00,42,12.00
2005,07,20,00,43,11.90
2005,07,20,00,44,11.90
2005,07,20,00,45,11.90
2005,07,20,00,46,11.90
2005,07,20,00,47,11.90
2005,07,20,00,48,11.80
2005,07,20,00,49,11.80
2005,07,20,00,50,11.80
2005,07,20,00,51,11.80
2005,07,20,00,52,11.80
2005,07,20,00,53,11.80
2005,07,20,00,54,11.80
2005,07,20,00,55,11.80
2005,07,20,00,56,11.80
2005,07,20,00,57,11.80
2005,07,20,00,58,11.90
2005,07,20,00,59,11.90
2005,07,20,01,00,11.80
2005,07,20,01,01,11.80
2005,07,20,01,02,11.80
2005,07,20,01,03,11.80
2005,07,20,01,04,11.70
2005,07,20,01,05,11.60
2005,07,20,01,06,11.60
2005,07,20,01,07,11.60
2005,07,20,01,08,11.50
2005,07,20,01,09,11.40
2005,07,20,01,10,11.40
2005,07,20,01,11,11.40
2005,07,20,01,12,11.40
2005,07,20,01,13,11.30
2005,07,20,01,14,11.30
2005,07,20,01,15,11.30
2005,07,20,01,16,11.20
2005,07,20,01,17,11.20
2005,07,20,01,18,11.20
2005,07,20,01,19,11.20
2005,07,20,01,20,11.20
2005,07,20,01,21,11.20
2005,07,20,01,22,11.20
2005,07,20,01,23,11.20
2005,07,20,01,24,11.10
2005,07,20,01,25,11.10
2005,07,20,01,26,11.10
2005,07,20,01,27,11.10
2005,07,20,01,28,11.10
2005,07,20,01,29,11.10
2005,07,20,01,30,11.10
2005,07,20,01,31,11.10
2005,07,20,01,32,11.10
2005,07,20,01,33,11.10
2005,07,20,01,34,11.10
2005,07,20,01,35,11.10
2005,07,20,01,36,11.10
2005,07,20,01,37,11.10
2005,07,20,01,38,11.10
2005,07,20,01,39,11.10
2005,07,20,01,40,11.10
2005,07,20,01,41,11.10
2005,07,20,01,42,11.10
2005,07,20,01,43,11.00
2005,07,20,01,44,10.90
2005,07,20,01,45,10.90
2005,07,20,01,46,10.90
2005,07,20,01,47,10.80
2005,07,20,01,48,10.80
2005,07,20,01,49,10.80
2005,07,20,01,50,10.80
2005,07,20,01,51,10.70
2005,07,20,01,52,10.70
2005,07,20,01,53,10.70
2005,07,20,01,54,10.70
2005,07,20,01,55,10.80
2005,07,20,01,56,10.80
2005,07,20,01,57,10.80
2005,07,20,01,58,10.80
2005,07,20,01,59,10.80
2005,07,20,02,00,10.80
2005,07,20,02,01,10.80
2005,07,20,02,02,10.90
2005,07,20,02,03,10.90
2005,07,20,02,04,10.90
2005,07,20,02,05,10.90
2005,07,20,02,06,10.90
2005,07,20,02,07,11.00
2005,07,20,02,08,11.10
2005,07,20,02,09,11.10
2005,07,20,02,10,11.10
2005,07,20,02,11,11.10
2005,07,20,02,12,11.10
2005,07,20,02,13,11.20
2005,07,20,02,14,11.20
2005,07,20,02,15,11.10
2005,07,20,02,16,11.10
2005,07,20,02,17,11.10
2005,07,20,02,18,11.00
2005,07,20,02,19,10.90
2005,07,20,02,20,10.90
2005,07,20,02,21,10.90
2005,07,20,02,22,10.90
2005,07,20,02,23,10.90
2005,07,20,02,24,10.90
2005,07,20,02,25,10.90
2005,07,20,02,26,10.90
2005,07,20,02,27,10.80
2005,07,20,02,28,10.80
2005,07,20,02,29,10.80
2005,07,20,02,30,10.80
2005,07,20,02,31,10.80
2005,07,20,02,32,10.70
2005,07,20,02,33,10.70
2005,07,20,02,34,10.60
2005,07,20,02,35,10.60
2005,07,20,02,36,10.60
2005,07,20,02,37,10.60
2005,07,20,02,38,10.60
2005,07,20,02,39,10.60
2005,07,20,02,40,10.60
2005,07,20,02,41,10.50
2005,07,20,02,42,10.40
2005,07,20,02,43,10.40
2005,07,20,02,44,10.40
2005,07,20,02,45,10.40
2005,07,20,02,46,10.40
2005,07,20,02,47,10.40
2005,07,20,02,48,10.40
2005,07,20,02,49,10.40
2005,07,20,02,50,10.40
2005,07,20,02,51,10.50
2005,07,20,02,52,10.60
2005,07,20,02,53,10.60
2005,07,20,02,54,10.60
2005,07,20,02,55,10.60
2005,07,20,02,56,10.60
2005,07,20,02,57,10.60
2005,07,20,02,58,10.60
2005,07,20,02,59,10.60
2005,07,20,03,00,10.60
2005,07,20,03,01,10.60
2005,07,20,03,02,10.60
2005,07,20,03,03,10.60
2005,07,20,03,04,10.60
2005,07,20,03,05,10.60
2005,07,20,03,06,10.60
2005,07,20,03,07,10.60
2005,07,20,03,08,10.60
2005,07,20,03,09,10.60
2005,07,20,03,10,10.60
2005,07,20,03,11,10.60
2005,07,20,03,12,10.60
2005,07,20,03,13,10.60
2005,07,20,03,14,10.60
2005,07,20,03,15,10.60
2005,07,20,03,16,10.60
2005,07,20,03,17,10.60
2005,07,20,03,18,10.60
2005,07,20,03,19,10.60
2005,07,20,03,20,10.60
2005,07,20,03,21,10.60
2005,07,20,03,22,10.50
2005,07,20,03,23,10.40
2005,07,20,03,24,10.40
2005,07,20,03,25,10.40
2005,07,20,03,26,10.40
2005,07,20,03,27,10.40
2005,07,20,03,28,10.30
2005,07,20,03,29,10.30
2005,07,20,03,30,10.30
2005,07,20,03,31,10.30
2005,07,20,03,32,10.30
2005,07,20,03,33,10.30
2005,07,20,03,34,10.30
2005,07,20,03,35,10.30
2005,07,20,03,36,10.30
2005,07,20,03,37,10.30
2005,07,20,03,38,10.30
2005,07,20,03,39,10.30
2005,07,20,03,40,10.30
2005,07,20,03,41,10.30
2005,07,20,03,42,10.30
2005,07,20,03,43,10.30
2005,07,20,03,44,10.30
2005,07,20,03,45,10.30
2005,07,20,03,46,10.30
2005,07,20,03,47,10.30
2005,07,20,03,48,10.30
2005,07,20,03,49,10.30
2005,07,20,03,50,10.20
2005,07,20,03,51,10.20
2005,07,20,03,52,10.20
2005,07,20,03,53,10.20
2005,07,20,03,54,10.20
2005,07,20,03,55,10.20
2005,07,20,03,56,10.10
2005,07,20,03,57,10.10
2005,07,20,03,58,10.10
2005,07,20,03,59,10.10
2005,07,20,04,00,10.10
2005,07,20,04,01,10.10
2005,07,20,04,02,10.10
2005,07,20,04,03,10.10
2005,07,20,04,04,10.20
2005,07,20,04,05,10.20
2005,07,20,04,06,10.20
2005,07,20,04,07,10.20
2005,07,20,04,08,10.30
2005,07,20,04,09,10.30
2005,07,20,04,10,10.40
2005,07,20,04,11,10.40
2005,07,20,04,12,10.40
2005,07,20,04,13,10.40
2005,07,20,04,14,10.40
2005,07,20,04,15,10.40
2005,07,20,04,16,10.50
2005,07,20,04,17,10.60
2005,07,20,04,18,10.60
2005,07,20,04,19,10.60
2005,07,20,04,20,10.60
2005,07,20,04,21,10.60
2005,07,20,04,22,10.60
2005,07,20,04,23,10.60
2005,07,20,04,24,10.60
2005,07,20,04,25,10.60
2005,07,20,04,26,10.60
2005,07,20,04,27,10.60
2005,07,20,04,28,10.60
2005,07,20,04,29,10.60
2005,07,20,04,30,10.60
2005,07,20,04,31,10.60
2005,07,20,04,32,10.60
2005,07,20,04,33,10.60
2005,07,20,04,34,10.60
2005,07,20,04,35,10.60
2005,07,20,04,36,10.50
2005,07,20,04,37,10.40
2005,07,20,04,38,10.40
2005,07,20,04,39,10.40
2005,07,20,04,40,10.40
2005,07,20,04,41,10.40
2005,07,20,04,42,10.30
2005,07,20,04,43,10.30
2005,07,20,04,44,10.30
2005,07,20,04,45,10.30
2005,07,20,04,46,10.20
2005,07,20,04,47,10.20
2005,07,20,04,48,10.20
2005,07,20,04,49,10.10
2005,07,20,04,50,10.10
2005,07,20,04,51,10.10
2005,07,20,04,52,10.10
2005,07,20,04,53,10.10
2005,07,20,04,54,10.10
2005,07,20,04,55,10.10
2005,07,20,04,56,10.10
2005,07,20,04,57,10.10
2005,07,20,04,58,10.00
2005,07,20,04,59,9.90
2005,07,20,05,00,9.90
2005,07,20,05,01,9.90
2005,07,20,05,02,9.90
2005,07,20,05,03,9.90
2005,07,20,05,04,9.90
2005,07,20,05,05,10.00
2005,07,20,05,06,10.00
2005,07,20,05,07,10.10
2005,07,20,05,08,10.10
2005,07,20,05,09,10.10
2005,07,20,05,10,10.10
2005,07,20,05,11,10.10
2005,07,20,05,12,10.10
2005,07,20,05,13,10.10
2005,07,20,05,14,10.10
2005,07,20,05,15,10.10
2005,07,20,05,16,10.10
2005,07,20,05,17,10.10
2005,07,20,05,18,10.00
2005,07,20,05,19,9.90
2005,07,20,05,20,9.90
2005,07,20,05,21,9.90
2005,07,20,05,22,9.90
2005,07,20,05,23,9.90
2005,07,20,05,24,9.90
2005,07,20,05,25,9.90
2005,07,20,05,26,9.80
2005,07,20,05,27,9.80
2005,07,20,05,28,9.80
2005,07,20,05,29,9.80
2005,07,20,05,30,9.80
2005,07,20,05,31,9.80
2005,07,20,05,32,9.80
2005,07,20,05,33,9.80
2005,07,20,05,34,9.80
2005,07,20,05,35,9.80
2005,07,20,05,36,9.80
2005,07,20,05,37,9.80
2005,07,20,05,38,9.80
2005,07,20,05,39,9.80
2005,07,20,05,40,9.80
2005,07,20,05,41,9.80
2005,07,20,05,42,9.80
2005,07,20,05,43,9.80
2005,07,20,05,44,9.80
2005,07,20,05,45,9.80
2005,07,20,05,46,9.80
2005,07,20,05,47,9.80
2005,07,20,05,48,9.80
2005,07,20,05,49,9.80
2005,07,20,05,50,9.80
2005,07,20,05,51,9.80
2005,07,20,05,52,9.80
2005,07,20,05,53,9.80
2005,07,20,05,54,9.80
2005,07,20,05,55,9.80
2005,07,20,05,56,9.80
2005,07,20,05,57,9.80
2005,07,20,05,58,9.80
2005,07,20,05,59,9.90
2005,07,20,06,00,9.80
2005,07,20,06,01,9.80
2005,07,20,06,02,9.80
2005,07,20,06,03,9.80
2005,07,20,06,04,9.80
2005,07,20,06,05,9.90
2005,07,20,06,06,9.90
2005,07,20,06,07,9.90
2005,07,20,06,08,9.90
2005,07,20,06,09,9.90
2005,07,20,06,10,9.90
2005,07,20,06,11,9.90
2005,07,20,06,12,9.90
2005,07,20,06,13,9.90
2005,07,20,06,14,10.10
2005,07,20,06,15,10.10
2005,07,20,06,16,10.10
2005,07,20,06,17,10.10
2005,07,20,06,18,10.10
2005,07,20,06,19,10.10
2005,07,20,06,20,10.10
2005,07,20,06,21,10.20
2005,07,20,06,22,10.20
2005,07,20,06,23,10.20
2005,07,20,06,24,10.20
2005,07,20,06,25,10.30
2005,07,20,06,26,10.30
2005,07,20,06,27,10.30
2005,07,20,06,28,10.40
2005,07,20,06,29,10.40
2005,07,20,06,30,10.40
2005,07,20,06,31,10.40
2005,07,20,06,32,10.50
2005,07,20,06,33,10.60
2005,07,20,06,34,10.60
2005,07,20,06,35,10.60
2005,07,20,06,36,10.60
2005,07,20,06,37,10.70
2005,07,20,06,38,10.70
2005,07,20,06,39,10.70
2005,07,20,06,40,10.80
2005,07,20,06,41,10.80
2005,07,20,06,42,10.80
2005,07,20,06,43,10.90
2005,07,20,06,44,10.90
2005,07,20,06,45,10.90
2005,07,20,06,46,10.90
2005,07,20,06,47,10.90
2005,07,20,06,48,10.90
2005,07,20,06,49,11.00
2005,07,20,06,50,11.10
2005,07,20,06,51,11.10
2005,07,20,06,52,11.10
2005,07,20,06,53,11.20
2005,07,20,06,54,11.20
2005,07,20,06,55,11.20
2005,07,20,06,56,11.30
2005,07,20,06,57,11.30
2005,07,20,06,58,11.30
2005,07,20,06,59,11.30
2005,07,20,07,00,11.30
2005,07,20,07,01,11.40
2005,07,20,07,02,11.40
2005,07,20,07,03,11.50
2005,07,20,07,04,11.60
2005,07,20,07,05,11.70
2005,07,20,07,06,11.80
2005,07,20,07,07,11.90
2005,07,20,07,08,12.00
2005,07,20,07,09,12.10
2005,07,20,07,10,12.10
2005,07,20,07,11,12.20
2005,07,20,07,12,12.40
2005,07,20,07,13,12.50
2005,07,20,07,14,12.50
2005,07,20,07,15,12.50
2005,07,20,07,16,12.60
2005,07,20,07,17,12.60
2005,07,20,07,18,12.60
2005,07,20,07,19,12.60
2005,07,20,07,20,12.70
2005,07,20,07,21,12.80
2005,07,20,07,22,12.80
2005,07,20,07,23,12.90
2005,07,20,07,24,13.00
2005,07,20,07,25,13.10
2005,07,20,07,26,13.20
2005,07,20,07,27,13.30
2005,07,20,07,28,13.40
2005,07,20,07,29,13.50
2005,07,20,07,30,13.60
2005,07,20,07,31,13.70
2005,07,20,07,32,13.80
2005,07,20,07,33,13.90
2005,07,20,07,34,14.00
2005,07,20,07,35,14.00
2005,07,20,07,36,14.20
2005,07,20,07,37,14.20
2005,07,20,07,38,14.40
2005,07,20,07,39,14.50
2005,07,20,07,40,14.60
2005,07,20,07,41,14.70
2005,07,20,07,42,14.80
2005,07,20,07,43,14.80
2005,07,20,07,44,14.90
2005,07,20,07,45,15.00
2005,07,20,07,46,15.10
2005,07,20,07,47,15.10
2005,07,20,07,48,15.20
2005,07,20,07,49,15.30
2005,07,20,07,50,15.40
2005,07,20,07,51,15.50
2005,07,20,07,52,15.70
2005,07,20,07,53,15.80
2005,07,20,07,54,15.80
2005,07,20,07,55,15.90
2005,07,20,07,56,16.10
2005,07,20,07,57,16.20
2005,07,20,07,58,16.30
2005,07,20,07,59,16.40
2005,07,20,08,00,16.40
2005,07,20,08,01,16.40
2005,07,20,08,02,16.40
2005,07,20,08,03,16.40
2005,07,20,08,04,16.40
2005,07,20,08,05,16.40
2005,07,20,08,06,16.40
2005,07,20,08,07,16.40
2005,07,20,08,08,16.30
2005,07,20,08,09,16.30
2005,07,20,08,10,16.30
2005,07,20,08,11,16.30
2005,07,20,08,12,16.20
2005,07,20,08,13,16.20
2005,07,20,08,14,16.20
2005,07,20,08,15,16.20
2005,07,20,08,16,16.20
2005,07,20,08,17,16.20
2005,07,20,08,18,16.20
2005,07,20,08,19,16.20
2005,07,20,08,20,16.20
2005,07,20,08,21,16.20
2005,07,20,08,22,16.30
2005,07,20,08,23,16.30
2005,07,20,08,24,16.30
2005,07,20,08,25,16.40
2005,07,20,08,26,16.40
2005,07,20,08,27,16.40
2005,07,20,08,28,16.40
2005,07,20,08,29,16.40
2005,07,20,08,30,16.40
2005,07,20,08,31,16.40
2005,07,20,08,32,16.40
2005,07,20,08,33,16.40
2005,07,20,08,34,16.40
2005,07,20,08,35,16.50
2005,07,20,08,36,16.60
2005,07,20,08,37,16.70
2005,07,20,08,38,16.70
2005,07,20,08,39,16.70
2005,07,20,08,40,16.80
2005,07,20,08,41,16.90
2005,07,20,08,42,17.10
2005,07,20,08,43,17.20
2005,07,20,08,44,17.30
2005,07,20,08,45,17.30
2005,07,20,08,46,17.40
2005,07,20,08,47,17.50
2005,07,20,08,48,17.70
2005,07,20,08,49,17.80
2005,07,20,08,50,17.90
2005,07,20,08,51,18.00
2005,07,20,08,52,18.10
2005,07,20,08,53,18.20
2005,07,20,08,54,18.30
2005,07,20,08,55,18.30
2005,07,20,08,56,18.20
2005,07,20,08,57,18.20
2005,07,20,08,58,18.10
2005,07,20,08,59,18.10
2005,07,20,09,00,18.10
2005,07,20,09,01,17.90
2005,07,20,09,02,17.90
2005,07,20,09,03,18.00
2005,07,20,09,04,18.10
2005,07,20,09,05,18.20
2005,07,20,09,06,18.10
2005,07,20,09,07,18.20
2005,07,20,09,08,18.20
2005,07,20,09,09,18.20
2005,07,20,09,10,18.20
2005,07,20,09,11,18.20
2005,07,20,09,12,18.30
2005,07,20,09,13,18.30
2005,07,20,09,14,18.40
2005,07,20,09,15,18.40
2005,07,20,09,16,18.30
2005,07,20,09,17,18.30
2005,07,20,09,18,18.20
2005,07,20,09,19,18.10
2005,07,20,09,20,18.00
2005,07,20,09,21,17.90
2005,07,20,09,22,17.90
2005,07,20,09,23,17.90
2005,07,20,09,24,17.90
2005,07,20,09,25,17.90
2005,07,20,09,26,17.90
2005,07,20,09,27,18.00
2005,07,20,09,28,18.10
2005,07,20,09,29,18.20
2005,07,20,09,30,18.40
2005,07,20,09,31,18.50
2005,07,20,09,32,18.60
2005,07,20,09,33,18.70
2005,07,20,09,34,18.90
2005,07,20,09,35,18.90
2005,07,20,09,36,19.10
2005,07,20,09,37,18.90
2005,07,20,09,38,18.90
2005,07,20,09,39,18.90
2005,07,20,09,40,18.80
2005,07,20,09,41,18.50
2005,07,20,09,42,18.30
2005,07,20,09,43,18.20
2005,07,20,09,44,18.20
2005,07,20,09,45,18.20
2005,07,20,09,46,18.20
2005,07,20,09,47,18.20
2005,07,20,09,48,18.20
2005,07,20,09,49,18.30
2005,07,20,09,50,18.40
2005,07,20,09,51,18.50
2005,07,20,09,52,18.60
2005,07,20,09,53,18.70
2005,07,20,09,54,18.80
2005,07,20,09,55,18.90
2005,07,20,09,56,18.90
2005,07,20,09,57,18.90
2005,07,20,09,58,18.90
2005,07,20,09,59,18.90
2005,07,20,10,00,18.90
2005,07,20,10,01,18.90
2005,07,20,10,02,18.70
2005,07,20,10,03,18.70
2005,07,20,10,04,18.60
2005,07,20,10,05,18.50
2005,07,20,10,06,18.50
2005,07,20,10,07,18.40
2005,07,20,10,08,18.40
2005,07,20,10,09,18.30
2005,07,20,10,10,18.30
2005,07,20,10,11,18.30
2005,07,20,10,12,18.30
2005,07,20,10,13,18.40
2005,07,20,10,14,18.30
2005,07,20,10,15,18.20
2005,07,20,10,16,18.20
2005,07,20,10,17,18.20
2005,07,20,10,18,18.30
2005,07,20,10,19,18.30
2005,07,20,10,20,18.30
2005,07,20,10,21,18.30
2005,07,20,10,22,18.30
2005,07,20,10,23,18.30
2005,07,20,10,24,18.40
2005,07,20,10,25,18.40
2005,07,20,10,26,18.50
2005,07,20,10,27,18.50
2005,07,20,10,28,18.70
2005,07,20,10,29,18.70
2005,07,20,10,30,18.80
2005,07,20,10,31,18.90
2005,07,20,10,32,18.90
2005,07,20,10,33,18.90
2005,07,20,10,34,18.90
2005,07,20,10,35,19.00
2005,07,20,10,36,19.10
2005,07,20,10,37,19.00
2005,07,20,10,38,18.90
2005,07,20,10,39,18.90
2005,07,20,10,40,18.90
2005,07,20,10,41,19.00
2005,07,20,10,42,18.90
2005,07,20,10,43,18.80
2005,07,20,10,44,18.70
2005,07,20,10,45,18.70
2005,07,20,10,46,18.60
2005,07,20,10,47,18.50
2005,07,20,10,48,18.50
2005,07,20,10,49,18.50
2005,07,20,10,50,18.50
2005,07,20,10,51,18.60
2005,07,20,10,52,18.60
2005,07,20,10,53,18.60
2005,07,20,10,54,18.60
2005,07,20,10,55,18.60
2005,07,20,10,56,18.70
2005,07,20,10,57,18.80
2005,07,20,10,58,18.90
2005,07,20,10,59,18.90
2005,07,20,11,00,18.90
2005,07,20,11,01,18.80
2005,07,20,11,02,18.80
2005,07,20,11,03,18.90
2005,07,20,11,04,19.00
2005,07,20,11,05,19.10
2005,07,20,11,06,19.10
2005,07,20,11,07,19.00
2005,07,20,11,08,18.90
2005,07,20,11,09,18.80
2005,07,20,11,10,18.80
2005,07,20,11,11,18.80
2005,07,20,11,12,18.80
2005,07,20,11,13,18.80
2005,07,20,11,14,18.80
2005,07,20,11,15,18.70
2005,07,20,11,16,18.70
2005,07,20,11,17,18.70
2005,07,20,11,18,18.80
2005,07,20,11,19,19.00
2005,07,20,11,20,19.20
2005,07,20,11,21,19.20
2005,07,20,11,22,19.20
2005,07,20,11,23,19.20
2005,07,20,11,24,19.30
2005,07,20,11,25,19.30
2005,07,20,11,26,19.20
2005,07,20,11,27,19.20
2005,07,20,11,28,19.10
2005,07,20,11,29,19.10
2005,07,20,11,30,19.10
2005,07,20,11,31,19.10
2005,07,20,11,32,19.10
2005,07,20,11,33,19.10
2005,07,20,11,34,19.10
2005,07,20,11,35,19.20
2005,07,20,11,36,19.20
2005,07,20,11,37,19.20
2005,07,20,11,38,19.10
2005,07,20,11,39,19.00
2005,07,20,11,40,18.90
2005,07,20,11,41,18.90
2005,07,20,11,42,18.90
2005,07,20,11,43,18.90
2005,07,20,11,44,18.90
2005,07,20,11,45,19.00
2005,07,20,11,46,19.10
2005,07,20,11,47,19.00
2005,07,20,11,48,18.90
2005,07,20,11,49,18.90
2005,07,20,11,50,18.90
2005,07,20,11,51,18.90
2005,07,20,11,52,18.90
2005,07,20,11,53,18.90
2005,07,20,11,54,18.90
2005,07,20,11,55,18.90
2005,07,20,11,56,18.90
2005,07,20,11,57,19.00
2005,07,20,11,58,19.10
2005,07,20,11,59,19.00
2005,07,20,12,00,19.10
2005,07,20,12,01,19.10
2005,07,20,12,02,19.20
2005,07,20,12,03,19.20
2005,07,20,12,04,19.20
2005,07,20,12,05,19.20
2005,07,20,12,06,19.20
2005,07,20,12,07,19.20
2005,07,20,12,08,19.10
2005,07,20,12,09,19.10
2005,07,20,12,10,19.10
2005,07,20,12,11,19.10
2005,07,20,12,12,19.00
2005,07,20,12,13,18.90
2005,07,20,12,14,18.90
2005,07,20,12,15,18.90
2005,07,20,12,16,18.90
2005,07,20,12,17,18.90
2005,07,20,12,18,18.90
2005,07,20,12,19,18.90
2005,07,20,12,20,18.90
2005,07,20,12,21,19.10
2005,07,20,12,22,19.20
2005,07,20,12,23,19.20
2005,07,20,12,24,19.10
2005,07,20,12,25,19.10
2005,07,20,12,26,19.10
2005,07,20,12,27,19.00
2005,07,20,12,28,19.00
2005,07,20,12,29,19.10
2005,07,20,12,30,19.20
2005,07,20,12,31,19.40
2005,07,20,12,32,19.50
2005,07,20,12,33,19.70
2005,07,20,12,34,20.00
2005,07,20,12,35,20.10
2005,07,20,12,36,20.20
2005,07,20,12,37,20.00
2005,07,20,12,38,19.90
2005,07,20,12,39,20.00
2005,07,20,12,40,20.00
2005,07,20,12,41,19.90
2005,07,20,12,42,19.90
2005,07,20,12,43,19.60
2005,07,20,12,44,19.30
2005,07,20,12,45,19.10
2005,07,20,12,46,19.10
2005,07,20,12,47,19.10
2005,07,20,12,48,19.20
2005,07,20,12,49,19.30
2005,07,20,12,50,19.50
2005,07,20,12,51,19.60
2005,07,20,12,52,19.70
2005,07,20,12,53,19.70
2005,07,20,12,54,19.60
2005,07,20,12,55,19.50
2005,07,20,12,56,19.40
2005,07,20,12,57,19.30
2005,07,20,12,58,19.30
2005,07,20,12,59,19.30
2005,07,20,13,00,19.40
2005,07,20,13,01,19.40
2005,07,20,13,02,19.40
2005,07,20,13,03,19.60
2005,07,20,13,04,19.60
2005,07,20,13,05,19.70
2005,07,20,13,06,19.60
2005,07,20,13,07,19.60
2005,07,20,13,08,19.50
2005,07,20,13,09,19.60
2005,07,20,13,10,19.80
2005,07,20,13,11,19.90
2005,07,20,13,12,19.90
2005,07,20,13,13,20.20
2005,07,20,13,14,20.30
2005,07,20,13,15,20.40
2005,07,20,13,16,20.50
2005,07,20,13,17,20.40
2005,07,20,13,18,20.40
2005,07,20,13,19,20.50
2005,07,20,13,20,20.70
2005,07,20,13,21,20.90
2005,07,20,13,22,21.00
2005,07,20,13,23,21.20
2005,07,20,13,24,21.00
2005,07,20,13,25,20.80
2005,07,20,13,26,20.70
2005,07,20,13,27,20.80
2005,07,20,13,28,20.80
2005,07,20,13,29,20.80
2005,07,20,13,30,20.70
2005,07,20,13,31,20.70
2005,07,20,13,32,20.80
2005,07,20,13,33,20.80
2005,07,20,13,34,20.80
2005,07,20,13,35,20.60
2005,07,20,13,36,20.50
2005,07,20,13,37,20.40
2005,07,20,13,38,20.40
2005,07,20,13,39,20.50
2005,07,20,13,40,20.70
2005,07,20,13,41,20.80
2005,07,20,13,42,20.70
2005,07,20,13,43,20.50
2005,07,20,13,44,20.20
2005,07,20,13,45,20.00
2005,07,20,13,46,19.70
2005,07,20,13,47,19.70
2005,07,20,13,48,19.70
2005,07,20,13,49,19.60
2005,07,20,13,50,19.60
2005,07,20,13,51,19.50
2005,07,20,13,52,19.40
2005,07,20,13,53,19.40
2005,07,20,13,54,19.30
2005,07,20,13,55,19.30
2005,07,20,13,56,19.40
2005,07,20,13,57,19.50
2005,07,20,13,58,19.50
2005,07,20,13,59,19.50
2005,07,20,14,00,19.60
2005,07,20,14,01,19.70
2005,07,20,14,02,19.70
2005,07,20,14,03,19.70
2005,07,20,14,04,19.60
2005,07,20,14,05,19.50
2005,07,20,14,06,19.40
2005,07,20,14,07,19.40
2005,07,20,14,08,19.50
2005,07,20,14,09,19.50
2005,07,20,14,10,19.50
2005,07,20,14,11,19.30
2005,07,20,14,12,19.30
2005,07,20,14,13,19.40
2005,07,20,14,14,19.40
2005,07,20,14,15,19.50
2005,07,20,14,16,19.60
2005,07,20,14,17,19.60
2005,07,20,14,18,19.40
2005,07,20,14,19,19.30
2005,07,20,14,20,19.30
2005,07,20,14,21,19.00
2005,07,20,14,22,18.80
2005,07,20,14,23,18.60
2005,07,20,14,24,18.50
2005,07,20,14,25,18.50
2005,07,20,14,26,18.50
2005,07,20,14,27,18.60
2005,07,20,14,28,18.80
2005,07,20,14,29,18.90
2005,07,20,14,30,19.00
2005,07,20,14,31,19.10
2005,07,20,14,32,19.10
2005,07,20,14,33,19.10
2005,07,20,14,34,18.90
2005,07,20,14,35,18.90
2005,07,20,14,36,18.70
2005,07,20,14,37,18.70
2005,07,20,14,38,18.60
2005,07,20,14,39,18.60
2005,07,20,14,40,18.50
2005,07,20,14,41,18.60
2005,07,20,14,42,18.70
2005,07,20,14,43,18.60
2005,07,20,14,44,18.60
2005,07,20,14,45,18.60
2005,07,20,14,46,18.60
2005,07,20,14,47,18.60
2005,07,20,14,48,18.60
2005,07,20,14,49,18.60
2005,07,20,14,50,18.50
2005,07,20,14,51,18.50
2005,07,20,14,52,18.50
2005,07,20,14,53,18.50
2005,07,20,14,54,18.50
2005,07,20,14,55,18.60
2005,07,20,14,56,18.70
2005,07,20,14,57,18.80
2005,07,20,14,58,18.80
2005,07,20,14,59,18.80
2005,07,20,15,00,18.80
2005,07,20,15,01,18.70
2005,07,20,15,02,18.70
2005,07,20,15,03,18.70
2005,07,20,15,04,18.90
2005,07,20,15,05,18.90
2005,07,20,15,06,18.90
2005,07,20,15,07,18.90
2005,07,20,15,08,18.90
2005,07,20,15,09,18.90
2005,07,20,15,10,18.90
2005,07,20,15,11,19.00
2005,07,20,15,12,19.10
2005,07,20,15,13,19.10
2005,07,20,15,14,19.20
2005,07,20,15,15,19.20
2005,07,20,15,16,19.30
2005,07,20,15,17,19.40
2005,07,20,15,18,19.40
2005,07,20,15,19,19.40
2005,07,20,15,20,19.40
2005,07,20,15,21,19.50
2005,07,20,15,22,19.40
2005,07,20,15,23,19.20
2005,07,20,15,24,19.00
2005,07,20,15,25,18.80
2005,07,20,15,26,18.70
2005,07,20,15,27,18.60
2005,07,20,15,28,18.60
2005,07,20,15,29,18.70
2005,07,20,15,30,18.70
2005,07,20,15,31,18.70
2005,07,20,15,32,18.80
2005,07,20,15,33,18.80
2005,07,20,15,34,18.80
2005,07,20,15,35,18.80
2005,07,20,15,36,18.80
2005,07,20,15,37,18.70
2005,07,20,15,38,18.70
2005,07,20,15,39,18.80
2005,07,20,15,40,18.70
2005,07,20,15,41,18.60
2005,07,20,15,42,18.60
2005,07,20,15,43,18.70
2005,07,20,15,44,18.70
2005,07,20,15,45,18.70
2005,07,20,15,46,18.50
2005,07,20,15,47,18.30
2005,07,20,15,48,18.20
2005,07,20,15,49,18.00
2005,07,20,15,50,18.10
2005,07,20,15,51,18.10
2005,07,20,15,52,18.00
2005,07,20,15,53,17.90
2005,07,20,15,54,17.90
2005,07,20,15,55,17.90
2005,07,20,15,56,18.00
2005,07,20,15,57,18.20
2005,07,20,15,58,18.20
2005,07,20,15,59,18.20
2005,07,20,16,00,18.10
2005,07,20,16,01,18.00
2005,07,20,16,02,17.90
2005,07,20,16,03,17.90
2005,07,20,16,04,18.00
2005,07,20,16,05,18.10
2005,07,20,16,06,18.20
2005,07,20,16,07,18.40
2005,07,20,16,08,18.50
2005,07,20,16,09,18.60
2005,07,20,16,10,18.70
2005,07,20,16,11,18.80
2005,07,20,16,12,19.00
2005,07,20,16,13,19.10
2005,07,20,16,14,19.30
2005,07,20,16,15,19.50
2005,07,20,16,16,19.60
2005,07,20,16,17,19.70
2005,07,20,16,18,19.60
2005,07,20,16,19,19.50
2005,07,20,16,20,19.50
2005,07,20,16,21,19.50
2005,07,20,16,22,19.60
2005,07,20,16,23,19.70
2005,07,20,16,24,19.80
2005,07,20,16,25,19.90
2005,07,20,16,26,20.00
2005,07,20,16,27,20.00
2005,07,20,16,28,19.90
2005,07,20,16,29,20.10
2005,07,20,16,30,20.10
2005,07,20,16,31,20.00
2005,07,20,16,32,19.90
2005,07,20,16,33,19.90
2005,07,20,16,34,19.90
2005,07,20,16,35,19.80
2005,07,20,16,36,19.70
2005,07,20,16,37,19.60
2005,07,20,16,38,19.60
2005,07,20,16,39,19.50
2005,07,20,16,40,19.40
2005,07,20,16,41,19.40
2005,07,20,16,42,19.50
2005,07,20,16,43,19.50
2005,07,20,16,44,19.40
2005,07,20,16,45,19.40
2005,07,20,16,46,19.40
2005,07,20,16,47,19.30
2005,07,20,16,48,19.20
2005,07,20,16,49,19.30
2005,07,20,16,50,19.40
2005,07,20,16,51,19.40
2005,07,20,16,52,19.50
2005,07,20,16,53,19.40
2005,07,20,16,54,19.40
2005,07,20,16,55,19.50
2005,07,20,16,56,19.50
2005,07,20,16,57,19.70
2005,07,20,16,58,19.90
2005,07,20,16,59,19.90
2005,07,20,17,00,20.00
2005,07,20,17,01,20.10
2005,07,20,17,02,20.20
2005,07,20,17,03,20.20
2005,07,20,17,04,20.20
2005,07,20,17,05,20.20
2005,07,20,17,06,20.40
2005,07,20,17,07,20.40
2005,07,20,17,08,20.50
2005,07,20,17,09,20.60
2005,07,20,17,10,20.60
2005,07,20,17,11,20.70
2005,07,20,17,12,20.80
2005,07,20,17,13,20.90
2005,07,20,17,14,21.00
2005,07,20,17,15,21.00
2005,07,20,17,16,21.10
2005,07,20,17,17,21.10
2005,07,20,17,18,21.20
2005,07,20,17,19,21.20
2005,07,20,17,20,21.20
2005,07,20,17,21,21.20
2005,07,20,17,22,21.20